Location: Newark
(27.9675°N, 86.8869°E)
Time: 02:39:37
(UTC+00:00)

Vanguard 3 - Pass Details

Date: 28 October 2019
Orbit: 508 x 3263 km, 33.3° (Epoch: 17 November)

Event Time Altitude Azimuth Distance (km) Brightness Sun altitude
Rises 11:23:56 0° 211° (SSW) 6,450 12.5 0.8°
Reaches altitude 10° 11:29:52 10° 199° (SSW) 4,960 11.7 -0.4°
Maximum altitude 11:39:28 24° 153° (SSE) 3,017 9.9 -2.5°
Drops below altitude 10° 11:45:58 10° 103° (ESE) 3,247 9.7 -3.9°
Enters shadow 11:47:53 - 93° (E) 3,630 9.8 -4.3°
Sets 11:48:51 0° 88° (E) 3,866 - -4.5°
